Regional Weather Roundup
Issued by NWS Green Bay, WI

Home | Current Version | Previous Version | Text Only | Print | Product List | Glossary On
Versions: 1 2 3 4 5 6 7 8 9 10 11 12 13 14 15 16 17 18 19 20 21 22 23 24 25 26 27 28 29 30 31 32 33 34 35 36 37 38 39 40 41 42 43 44 45 46 47 48 49 50
000
ASUS43 KGRB 061459
RWRGRB

NORTH-CENTRAL AND NORTHEAST WISCONSIN REGIONAL WEATHER ROUNDUP
NATIONAL WEATHER SERVICE GREEN BAY WI
1000 AM CDT WED MAY 06 2015

WIZ005-009-010>012-018-019-061600-
NORTH CENTRAL WISCONSIN

CITY           SKY/WX    TMP DP  RH WIND       PRES   REMARKS
IRONWOOD       CLOUDY    57  46  67 SE15      30.13F
MANITOWISH WTR NOT AVBL
ARBOR VITAE    NOT AVBL
EAGLE RIVER    NOT AVBL
LAND O LAKES   NOT AVBL
RHINELANDER    CLOUDY    52  45  77 S8        30.20F
PHILLIPS       NOT AVBL
ANTIGO         NOT AVBL
TOMAHAWK       NOT AVBL
MERRILL        NOT AVBL
$$

WIZ013-073-061600-
NORTHEAST WISCONSIN

CITY           SKY/WX    TMP DP  RH WIND       PRES   REMARKS
IRON MOUNTAIN  CLOUDY    60  31  33 SE10      30.20F
MARINETTE      CLOUDY    55  41  58 E7        30.22F
$$

WIZ017-030-035>037-045-061600-
CENTRAL WISCONSIN

CITY           SKY/WX    TMP DP  RH WIND       PRES   REMARKS
MEDFORD        NOT AVBL
WAUSAU         CLOUDY    51  47  86 E8        30.17S
MOSINEE        CLOUDY    52  48  87 E6        30.18F
MARSHFIELD     MOSUNNY   58  49  72 SE14      30.15F
WISC RAPIDS    MOSUNNY   60  49  66 E8        30.17F
STEVENS POINT  NOT AVBL
WAUPACA        NOT AVBL
SHAWANO        NOT AVBL
CLINTONVILLE   NOT AVBL
$$

WIZ038-039-048-051-061600-
FOX VALLEY

CITY           SKY/WX    TMP DP  RH WIND       PRES   REMARKS
NWS GREEN BAY  LGT RAIN  55  47  74 E7        30.22S
APPLETON       PTSUNNY   55  46  71 SE8       30.20F
OSHKOSH        PTSUNNY   56  50  80 E8        30.19F
FOND DU LAC    PTSUNNY   58  52  80 E8        30.19F
$$

WIZ022-050-052-061600-
EAST CENTRAL WISCONSIN

CITY           SKY/WX    TMP DP  RH WIND       PRES   REMARKS
STURGEON BAY   CLOUDY    52  37  58 SE9       30.25F
MANITOWOC      NOT AVBL
SHEBOYGAN      FOG       51  50  96 E8        30.22F VSB 1/4
$$

LMZ563-521-522-541>543-061600-
LAKESHORE

STATION/POSITION TIME  TEMP    WIND        PRES    VSBY  WAVE
                       AIR SEA DIR/SP/G                  HT/PER
                 (UTC) (F)     (DEG/KT/KT) (MB)    (MI)  (FT/S)
SHEBOYGAN LKSHOR 1400   44      50/  2/  3 1024.3F
KEWAUNEE LKSHORE 1400   46      50/  3/  6 1023.1F
NORTHPORT PIER   1400   44     140/  6/  7 1024.0F
SISTER BAY LKSHO 1400   57        CALM       N/A
CHAMBERS ISLAND  1400   53      60/  3/  3 1024.0S
MENOMINEE LKSHOR 1400   51     130/  3/  4 1024.2F
$$


USA.gov is the U.S. government's official web portal to all federal, state and local government web resources and services.